www.pogodaiklimat.ru

Погода и климат >> Архив погоды >> Боливия >> Cobija


ПОГОДА в Cobija

  • Прогноз погоды в Cobija
  • Монитор погоды в Cobija
  • Климат города

АРХИВ ПОГОДЫ в Cobija

Время (UTC), дата Ветер
(напр.,м/с)
 
Видим.   Явления Облачность Т
(С)
Тd
(С)
f
(%)
Тe
(С)
Тes
(С)
Комфортность P
(гПа)
Po
(гПа)
Тmin
(С)
Tmax
(С)
R
(мм)
R24
(мм)
S
(см)
12 13.11 штиль 0 20 км 9/1 120 м
[St Ac trans Ci fib]
+24.2 +23.3 95 +32 +35 очень
душно
1010.5 983.8 +22.5 0.1
15 13.11 Ю 2 20 км 9/1 500 м
[Cu hum Ac trans]
+28.7 +24.3 77 +40 +49 очень
душно
1010.8 984.5
18 13.11 ЮВ 2 20 км 4/4 700 м
[Cb cap Ac cuf Ci ing]
+31.8 +22.0 56 +40 +52 опасность
солнечного
удара
1006.7 980.8
21 13.11 ЮЗ 2 20 км 5/3 750 м
[Cb cap Ac cuf Ci ing]
+31.5 +24.1 65 +43 +46 опасность
перегрева
1004.1 978.2 +33.5
12 14.11 З 4 20 км 6/1 180 м
[Sc Ac trans Ci sp]
+25.8 +24.2 91 +36 +37 очень
душно
1009.3 982.7 +24.0
15 14.11 СВ 3 20 км 8/4 500 м
[Cu med, cong Ac trans Ci sp]
+29.5 +24.8 76 +42 +48 опасность
перегрева
1009.4 983.2
18 14.11 З 2 20 км 8/5 600 м
[Cu med, cong Ci sp]
+31.4 +25.8 72 +46 +55 опасность
перегрева
1006.1 980.1
21 14.11 В 2 20 км 6/3 600 м
[Cb cap Ci ing]
+31.3 +24.5 67 +44 +47 опасность
перегрева
1003.0 977.1 +32.8
12 15.11 СЗ 3 20 км 4/3 450 м
[Sc Ac trans Ci fib]
+24.8 +23.7 94 +34 +36 очень
душно
1009.5 982.9 +23.6
15 15.11 СЗ 5 20 км 8/6 600 м
[Cu hum Ci fib]
+30.0 +24.4 72 +42 +46 опасность
перегрева
1009.3 983.1
18 15.11 С 5 20 км 6/6 700 м
[Cb cap Ac cuf Ci ing]
+32.3 +24.9 65 +46 +50 опасность
перегрева
1006.1 980.2
21 15.11 С 4 10 км гроза без осадков туман 6/3 700 м
[Cb cap Ac cuf Ci ing]
+31.8 +23.9 63 +43 +45 опасность
перегрева
1003.9 978.0 +33.5
12 16.11 СЗ 3 20 км 8/5 180 м
[Sc Ac trans Ci sp]
+25.6 +24.0 91 +35 +36 очень
душно
1009.7 983.1 +23.5
15 16.11 СЗ 5 20 км 6/6 450 м
[Cu Sc Ac trans Ci fib]
+30.1 +24.5 72 +42 +46 опасность
перегрева
1009.6 983.4
18 16.11 СЗ 7 20 км 6/6 600 м
[Cb cap Ac trans Ci fib]
+32.0 +23.8 62 +43 +46 опасность
перегрева
1006.8 980.9
21 16.11 З 7 10 км осадки на расстоянии 6/6 600 м
[Cb cap Ci ing]
+30.0 +23.7 69 +41 +41 опасность
перегрева
1004.1 978.1 +33.3
12 17.11 СВ 2 20 км 9/3 600 м
[Sc Ac As]
+24.9 +23.7 93 +34 +35 очень
душно
1008.3 981.7 +20.5
15 17.11 С 4 7000 м слабый дождь 10/5 150 м
[Sc As op]
+25.6 +23.8 90 +35 +36 очень
душно
1010.0 983.4
18 17.11 С 6 10 км осадки на расстоянии {дождь} 9/6 450 м
[Cb cap Ci ing]
+28.0 +24.2 80 +39 +42 очень
душно
1007.0 980.7 2
21 17.11 СЗ 3 6000 м в посл. час дождь 9/4 300 м
[Cb cap Ac cuf Ci ing]
+24.0 +22.8 93 +32 +33 очень
душно
1005.7 979.1 +28.8
12 18.11 С 5 20 км 6/3 150 м
[Sc Ac trans]
+24.0 +22.6 92 +31 +32 очень
душно
1006.2 979.6 +21.8 4
15 18.11 СЗ 2 20 км 6/4 500 м
[Cu hum Ac trans]
+27.4 +23.4 79 +37 +47 очень
душно
1007.3 981.1
18 18.11 СЗ 4 20 км 8/6 600 м
[Cu med, cong Ac trans]
+31.0 +23.9 66 +43 +46 опасность
перегрева
1005.3 979.3
21 18.11 З 8 1000 м сильный дождь 9/4 600 м
[Cb cap Ac cuf]
+23.9 +23.7 99 +32 +33 очень
душно
1004.2 977.6 +32.1
12 19.11 штиль 0 20 км 5/1 450 м
[Sc Ac trans]
+25.3 +23.9 92 +35 +38 очень
душно
1008.0 981.4 +22.6 15
15 19.11 С 4 20 км 9/5 500 м
[Cu hum Ac trans]
+28.7 +24.5 78 +41 +44 опасность
перегрева
1008.2 981.9
18 19.11 СЗ 4 20 км 6/5 600 м
[Cu med, cong Ac trans]
+31.2 +25.6 72 +46 +51 опасность
перегрева
1004.6 978.7
21 19.11 З 3 8000 м в посл. час гроза туман 6/4 600 м
[Cb cap Ac cuf Ci ing]
+29.0 +22.5 68 +38 +40 очень
душно
1003.1 977.0 +32.6

 

Местоположение метеостанции Cobija (Боливия): широта -11.03 долгота -68.78 высота над уровнем моря 235 м.

В архиве по умолчанию представлена погода в Cobija за последнюю неделю. Архивные данные за месяц целиком и за предыдущие месяцы, начиная с января 2011 года, Вы можете получить, выбрав интересующий диапазон дат из раскрывающегося списка и нажав кнопку "Ввод!".

Внимание! Время в таблицах - всемирное. Для получения местного времени необходимо прибавить поправку, которая в Cobija равна -4 ч.

Смотрите также архив погоды в соседних городах и на ближайших метеорологических станциях:

Погода в Epitaciolandia (Бразилия) (6 км)
Погода в Rio Branco (Бразилия) (136 км)
Погода в Rio Branco (Бразилия) (157 км)
Погода в Puerto Maldonado (Перу) (181 км)
Погода в Parque Estadual Chan (Бразилия) (223 км)
Погода в Riberalta (Боливия) (292 км)
Погода в Boca do Acre (Бразилия) (296 км)
Погода в Feijo (Бразилия) (364 км)
Погода в Tarauaca (Бразилия) (385 км)
Погода в Reyes (Боливия) (395 км)

Пояснения к столбцам:

Ветер - указаны скорость ветра в м/с - средняя за 10 мин, порывы в срок и между сроками (в фигурных скобках) и направление, откуда дует ветер: С - северный, СВ - северо-восточный, В - восточный, ЮВ - юго-восточный, Ю - южный, ЮЗ - юго-западный, З - западный, СЗ - северо-западный.
Видимость - горизонтальная дальность видимости в метрах или километрах. При видимости от 1 до 10 км при отсутствии осадков обычно наблюдается дымка, при ухудшении видимости до 1 км и менее - туман. В сухую погоду видимость может ухудшаться дымом, пылью или мглою.
Явления - указаны атмосферные явления, наблюдавшиеся в срок или в последний час перед сроком; фигурными скобками обозначены явления, наблюдавшиеся между сроками (за 1-3 часа до срока); квадратными скобками обозначены град или гололедные отложения с указанием их диаметра в мм.
Облачность - указаны через наклонную черту общая и нижняя облачность в баллах и высота нижней границы облаков в метрах; квадратными скобками обозначены формы облаков: Ci - перистые, Cs - перисто-слоистые, Cc - перисто-кучевые, Ac - высококучевые, As - высокослоистые, Sc - слоисто-кучевые, Ns - слоисто-дождевые, Cu - кучевые, Cb - кучево-дождевые. Подробнее классификацию облаков см. в Атласе облаков (PDF).
T - Температура воздуха - температура, измеренная на высоте 2 м над землей.
Td - Температура точки росы - температура, при понижении до которой содержащийся в воздухе водяной пар достигнет насыщения.
f - Относительная влажность воздуха - влажноcть воздуха, измеренная на высоте 2 м над землей.
Te - Эффективная температура - температура, которую ощущает одетый по сезону человек в тени. Характеристика душности погоды. При расчете учитывается влияние влажности воздуха и скорости ветра на теплоощущения человека.
Tes - Эффективная температура на солнце - температура, которую ощущает человек, с поправкой на солнечный нагрев. Характеристика знойности погоды. Зависит от высоты солнца над горизонтом, облачности и скорости ветра. Ночью, в пасмурную погоду, а также при ветре 12 м/с и более поправка равна нулю.
P - Атмосферное давление - приведенное к уровню моря атмосферное давление.
Po - Атмосферное давление - измеренное на уровне метеостанции атмосферное давление.
Tmin - Минимальная температура - минимум температуры воздуха на высоте 2 м над землей.
Tmax - Максимальная температура - максимум температуры воздуха на высоте 2 м над землей.
R - Количество осадков - Количество выпавших осадков за период времени, мм. При наведении курсора мыши на число - период времени, за который выпало указанное количество осадков.
R24 - Количество осадков - Количество выпавших осадков за 24 часа, мм.
S - Снежный покров - Высота снежного покрова, см. При наведении курсора мыши на число - состояние снежного покрова и степень покрытия местности в баллах.